Location: Corcelles
(46.1547°N, 4.7234°E)
Time: 21:00:06
(UTC+00:00)

Meteor 2-4 Rocket - Pass Details

Date: 14 July 2020
Orbit: 799 x 908 km, 81.2° (Epoch: 14 August)

Event Time Altitude Azimuth Distance (km) Brightness Sun altitude
Rises 01:56:42 0° 344° (NNW) 3,549 7.6 -16.1°
Reaches altitude 10° 01:59:15 10° 339° (NNW) 2,602 6.7 -15.9°
Maximum altitude 02:04:56 48° 267° (W) 1,164 4.2 -15.4°
Enters shadow 02:08:30 22° 203° (SSW) 1,865 4.9 -15.0°
